This is the latest recevied weather packets stored in our database for station/object W5LND-10. If no packets are shown the sender has not sent any weather packets the latest 10 day(s).
| Time | Temp. | Humidity | Pressure | Rain* | Wind** | Luminosity | Snow |
|---|---|---|---|---|---|---|---|
| 1777132598 | 27.78° C | 24% | 1002.8 hPa | 0 mm | - | 881 W/m² | - |
| 1777132298 | 27.78° C | 27% | 1002.7 hPa | 0 mm | - | 863 W/m² | - |
| 1777131998 | 27.78° C | 31% | 1002.7 hPa | 0 mm | - | 849 W/m² | - |
| 1777131698 | 27.78° C | 31% | 1002.7 hPa | 0 mm | - | 828 W/m² | - |
| 1777131398 | 27.22° C | 32% | 1002.7 hPa | 0 mm | - | 817 W/m² | - |
| 1777131098 | 27.22° C | 34% | 1002.8 hPa | 0 mm | - | 798 W/m² | - |
| 1777130799 | 26.67° C | 35% | 1002.7 hPa | 0 mm | - | 780 W/m² | - |
| 1777130499 | 26.67° C | 38% | 1002.7 hPa | 0 mm | - | 765 W/m² | - |
| 1777130198 | 26.67° C | 38% | 1002.5 hPa | 0 mm | - | 751 W/m² | - |
| 1777129899 | 26.11° C | 38% | 1002.5 hPa | 0 mm | - | 747 W/m² | - |
| 1777129598 | 26.11° C | 38% | 1002.4 hPa | 0 mm | - | 731 W/m² | - |
| 1777129299 | 26.11° C | 37% | 1002.2 hPa | 0 mm | - | 715 W/m² | - |
| 1777128999 | 25.56° C | 42% | 1002.3 hPa | 0 mm | - | 687 W/m² | - |
| 1777128699 | 25° C | 49% | 1002.1 hPa | 0 mm | - | 671 W/m² | - |
| 1777128399 | 24.44° C | 49% | 1002.2 hPa | 0 mm | - | 664 W/m² | - |
| 1777128099 | 24.44° C | 54% | 1002.2 hPa | 0 mm | - | 645 W/m² | - |
| 1777127799 | 23.89° C | 57% | 1002.1 hPa | 0 mm | - | 622 W/m² | - |
| 1777127499 | 23.33° C | 58% | 1002.1 hPa | 0 mm | - | 619 W/m² | - |
| 1777127199 | 23.33° C | 59% | 1002 hPa | 0 mm | - | 594 W/m² | - |
| 1777126899 | 22.78° C | 61% | 1002.1 hPa | 0 mm | - | 571 W/m² | - |
| 1777126599 | 22.78° C | 62% | 1002 hPa | 0 mm | - | 545 W/m² | - |
| 1777126299 | 22.22° C | 63% | 1002 hPa | 0 mm | - | 522 W/m² | - |
| 1777125999 | 22.22° C | 64% | 1002 hPa | 0 mm | - | 499 W/m² | - |
| 1777125699 | 22.22° C | 64% | 1001.9 hPa | 0 mm | - | 478 W/m² | - |
| 1777125399 | 22.22° C | 65% | 1001.9 hPa | 0 mm | - | 454 W/m² | - |
* Rain latest hour (hover to see other rain measurements)
** Current wind speed in m/s (hover to see current wind gust speed)